EW3994 Weather Reports


Display with metric or nautical units.
time (UTC)temp
F
wind
direction
speed
MPH
gust
MPH
rain 1hr
in
rain 24hr
in
rain mn
in
humidity
%
barometer
mb
20260507163923 57 198 3.0 6.0 0.00 0.00 0.00 57 1029.3
20260507163022 57 170 4.0 10.0 0.00 0.00 0.00 57 1029.5
20260507162122 57 164 5.0 14.0 0.00 0.00 0.00 57 1029.5
20260507160323 57 197 5.0 11.0 0.00 0.00 0.00 56 1029.6
20260507155424 57 215 6.0 14.0 0.00 0.00 0.00 56 1029.5
20260507154523 57 203 3.0 7.0 0.00 0.00 0.00 56 1029.5
20260507153622 57 201 5.0 13.0 0.00 0.00 0.00 56 1029.6
20260507152723 57 195 6.0 13.0 0.00 0.00 0.00 56 1029.6
20260507151822 57 199 8.0 15.0 0.00 0.00 0.00 56 1029.6
20260507150922 56 199 7.0 14.0 0.00 0.00 0.00 56 1029.6
20260507144222 56 203 3.0 6.0 0.00 0.00 0.00 56 1029.6
20260507142422 56 210 3.0 9.0 0.00 0.00 0.00 56 1029.5
20260507141522 56 215 3.0 7.0 0.00 0.00 0.00 56 1029.6
20260507140621 56 206 1.0 6.0 0.00 0.00 0.00 56 1029.6
20260507135722 56 164 0.0 3.0 0.00 0.00 0.00 56 1029.6
20260507134822 56 190 1.0 5.0 0.00 0.00 0.00 56 1029.6
20260507133922 56 188 1.0 6.0 0.00 0.00 0.00 56 1029.7
20260507131222 56 183 2.0 5.0 0.00 0.00 0.00 55 1029.8
20260507130322 56 186 2.0 5.0 0.00 0.00 0.00 55 1029.8
20260507125422 56 178 2.0 5.0 0.00 0.01 0.00 55 1029.8
20260507124522 56 192 3.0 6.0 0.00 0.01 0.00 55 1029.9
20260507123621 56 175 2.0 6.0 0.00 0.01 0.00 55 1030.1
20260507122722 56 167 2.0 6.0 0.00 0.01 0.00 55 1030.1
20260507120921 57 168 3.0 6.0 0.00 0.01 0.00 54 1030.2
20260507120022 57 171 3.0 6.0 0.00 0.01 0.00 54 1030.1
20260507115121 57 167 3.0 7.0 0.00 0.01 0.00 54 1030.1
20260507114222 57 197 5.0 11.0 0.00 0.01 0.00 54 1030.1
20260507113322 57 212 6.0 10.0 0.00 0.01 0.00 53 1030.1
20260507112422 57 210 7.0 14.0 0.00 0.01 0.00 52 1030.2
20260507111522 57 204 5.0 10.0 0.00 0.01 0.00 52 1030.0
20260507110621 57 219 4.0 8.0 0.00 0.01 0.00 51 1029.9
20260507105722 57 205 4.0 8.0 0.00 0.01 0.00 51 1030.0
20260507104822 56 193 4.0 10.0 0.00 0.01 0.00 50 1030.0
20260507103922 56 181 4.0 11.0 0.00 0.01 0.00 50 1030.0
20260507102121 56 178 2.0 6.0 0.00 0.01 0.00 51 1030.1
20260507100322 56 175 4.0 8.0 0.00 0.01 0.00 51 1030.2
20260507095422 56 178 2.0 8.0 0.00 0.01 0.00 51 1030.0
20260507094522 56 186 2.0 6.0 0.00 0.01 0.00 51 1029.9
20260507093621 56 175 3.0 7.0 0.00 0.01 0.00 51 1029.9
20260507091822 56 177 4.0 8.0 0.00 0.01 0.00 50 1029.8
20260507090922 57 182 4.0 9.0 0.00 0.01 0.00 50 1029.8
20260507090022 57 176 4.0 9.0 0.00 0.01 0.00 50 1029.8
20260507085121 57 170 4.0 9.0 0.00 0.01 0.00 50 1029.7
20260507084222 57 174 4.0 10.0 0.00 0.01 0.00 50 1029.6
20260507083321 56 182 4.0 10.0 0.00 0.01 0.00 51 1029.5
20260507082422 56 201 5.0 10.0 0.00 0.01 0.00 51 1029.4
20260507081521 56 215 4.0 8.0 0.00 0.01 0.00 50 1029.4
20260507080621 56 213 5.0 11.0 0.00 0.01 0.00 49 1029.4
20260507075721 56 209 6.0 15.0 0.00 0.01 0.00 48 1029.5
20260507074822 57 215 5.0 11.0 0.00 0.01 0.00 48 1029.5
20260507073921 57 198 6.0 13.0 0.00 0.01 0.00 47 1029.5
20260507073021 58 191 5.0 12.0 0.00 0.01 0.00 47 1029.3
20260507072120 58 209 8.0 14.0 0.00 0.01 0.00 46 1029.3
20260507071221 58 207 9.0 16.0 0.00 0.01 0.00 46 1029.3
20260507070322 59 227 7.0 17.0 0.00 0.01 0.00 44 1029.3
20260507065421 59 214 7.0 14.0 0.00 0.01 0.00 44 1029.2
20260507064521 59 219 8.0 15.0 0.00 0.01 0.00 44 1029.2
20260507063621 60 211 7.0 13.0 0.00 0.01 0.00 42 1029.2
20260507062721 59 222 7.0 13.0 0.00 0.01 0.00 44 1029.1
20260507061821 59 221 6.0 13.0 0.00 0.01 0.00 45 1029.1
20260507060021 59 198 5.0 11.0 0.00 0.01 0.00 45 1029.2
20260507053321 60 171 4.0 10.0 0.00 0.01 0.00 47 1029.2
20260507045721 60 223 8.0 16.0 0.00 0.01 0.00 43 1029.2
20260507044821 62 199 7.0 16.0 0.00 0.01 0.00 42 1029.3
20260507042121 62 227 9.0 14.0 0.00 0.01 0.00 40 1029.3
20260507041221 61 221 9.0 17.0 0.00 0.01 0.00 40 1029.3
20260507040320 63 237 8.0 15.0 0.00 0.01 0.00 37 1029.4
20260507035420 64 211 5.0 11.0 0.00 0.01 0.00 39 1029.4
20260507032720 61 167 6.0 12.0 0.00 0.01 0.00 41 1029.5
20260507031821 64 165 6.0 12.0 0.00 0.01 0.00 45 1029.6
20260507030921 61 161 7.0 13.0 0.00 0.01 0.00 41 1029.6
20260507030021 61 179 6.0 14.0 0.00 0.02 0.00 42 1029.7
20260507025120 61 184 5.0 14.0 0.00 0.02 0.00 43 1029.7
20260507024221 63 223 7.0 15.0 0.00 0.02 0.00 40 1029.8
20260507022421 66 209 6.0 11.0 0.00 0.02 0.00 40 1030.0
20260507021521 63 189 6.0 14.0 0.00 0.02 0.00 43 1030.0
20260507015721 59 202 6.0 12.0 0.00 0.02 0.00 44 1030.2
20260507013921 60 217 9.0 19.0 0.00 0.02 0.00 41 1030.2
20260507013020 63 200 6.0 19.0 0.00 0.02 0.00 38 1030.1
20260507010321 65 165 8.0 15.0 0.00 0.02 0.00 37 1029.9
20260507005421 65 170 7.0 15.0 0.00 0.02 0.00 36 1029.9
20260507004521 65 162 7.0 16.0 0.00 0.02 0.00 40 1029.8
20260507002720 63 166 7.0 18.0 0.00 0.02 0.00 42 1029.8
20260507001820 63 191 7.0 13.0 0.00 0.02 0.00 43 1029.8
20260507000020 62 191 5.0 11.0 0.00 0.02 0.00 45 1029.9
20260506235119 62 192 4.0 8.0 0.00 0.02 0.00 47 1029.9
20260506234220 60 169 5.0 10.0 0.00 0.02 0.00 49 1029.8
20260506233320 58 166 3.0 9.0 0.00 0.02 0.00 52 1029.7
20260506232420 56 169 4.0 8.0 0.00 0.02 0.00 56 1029.7
20260506231520 54 166 3.0 8.0 0.00 0.02 0.00 59 1029.6
20260506230620 53 163 4.0 8.0 0.00 0.02 0.00 57 1029.5
20260506225720 53 167 3.0 7.0 0.00 0.02 0.00 57 1029.5
20260506224820 53 164 2.0 6.0 0.00 0.02 0.00 58 1029.3
20260506223020 49 177 1.0 3.0 0.00 0.02 0.00 56 1029.1
20260506222119 49 177 1.0 3.0 0.00 0.02 0.00 56 1028.9
20260506221220 49 162 1.0 3.0 0.00 0.02 0.00 56 1028.8
20260506220320 49 160 1.0 2.0 0.00 0.02 0.00 55 1028.7
20260506215421 49 160 1.0 4.0 0.00 0.02 0.00 55 1028.6
20260506214520 49 170 1.0 4.0 0.00 0.02 0.00 55 1028.5
20260506213619 50 175 1.0 2.0 0.00 0.02 0.00 55 1028.5
20260506212720 50 175 1.0 2.0 0.00 0.02 0.00 55 1028.3
20260506210020 51 0 0.0 0.0 0.00 0.02 0.00 55 1027.9
20260506205120 51 175 1.0 2.0 0.00 0.02 0.00 55 1027.8
20260506203320 51 161 2.0 6.0 0.00 0.02 0.00 55 1027.7
20260506202420 51 156 3.0 6.0 0.00 0.02 0.00 55 1027.5
20260506201519 52 166 4.0 8.0 0.00 0.02 0.00 55 1027.5
20260506200619 52 169 3.0 8.0 0.00 0.02 0.00 55 1027.5
20260506194820 52 172 4.0 8.0 0.00 0.02 0.00 54 1027.4
20260506193019 52 155 2.0 6.0 0.00 0.02 0.00 54 1027.2
20260506192120 52 163 2.0 6.0 0.00 0.02 0.00 53 1027.2
20260506191220 52 175 3.0 6.0 0.00 0.02 0.00 54 1027.1
20260506185420 52 163 3.0 8.0 0.00 0.02 0.00 53 1026.7
20260506183620 52 172 7.0 13.0 0.00 0.02 0.00 54 1026.6
20260506182719 52 166 6.0 16.0 0.00 0.02 0.00 54 1026.5
20260506181819 52 156 4.0 10.0 0.00 0.02 0.00 53 1026.5
20260506180919 52 161 3.0 7.0 0.00 0.02 0.00 53 1026.5
20260506180019 52 160 2.0 6.0 0.00 0.02 0.00 53 1026.5
20260506175119 52 164 3.0 6.0 0.00 0.02 0.00 53 1026.6
20260506174220 52 156 2.0 5.0 0.00 0.02 0.00 53 1026.6
20260506173320 53 145 3.0 9.0 0.00 0.02 0.00 53 1026.6
20260506170619 53 157 2.0 4.0 0.00 0.02 0.00 52 1026.6
20260506165719 53 171 1.0 5.0 0.00 0.02 0.00 52 1026.5